Simultaneous Nadir Overpasses (SNOs) Predictions

Prediction of SNOs between GOES-16 and LANDSAT-8 Satellite Orbit:

Table of predicted SNOs for the next 14.0 days since TLE Epoch: 9/16/2023
Index Date Time (GOES-16) GOES-16 Lat,Lon LANDSAT-8 Lat,Lon Distance(km) Time Diff (sec)
1 09/16/2023 15:09:14 -0.06, -75.22 -0.31, -73.92 146.74 80
2 09/17/2023 03:27:59 0.06, -75.21 -0.75, -79.12 444.85 80
3 09/18/2023 14:57:03 -0.06, -75.23 -0.93, -70.97 484.06 80
4 09/19/2023 03:15:48 0.06, -75.22 -0.13, -76.17 107.45 80
5 09/21/2023 03:06:16 0.05, -75.23 0.46, -73.20 230.21 80
6 09/21/2023 15:24:52 -0.05, -75.25 0.61, -78.36 354.35 80
7 09/23/2023 15:12:40 -0.05, -75.26 0.00, -75.40 16.64 80
8 09/25/2023 15:03:08 -0.04, -75.27 -0.62, -72.43 321.91 80
9 09/26/2023 03:24:32 0.04, -75.26 -0.48, -77.63 269.12 80
10 09/28/2023 03:09:40 0.04, -75.29 0.17, -74.67 70.45 80
